Stanton, MN

11:35 PM CST on November 20, 2017 (GMT -0600)
Stanton

Weather History for KSYN - July, 2013

Change the Weather History Date:

Sunday, July 28, 2013

  Actual Average (KLVN) Record (KLVN)
Temperature  
Mean Temperature 59 °F -  
Max Temperature 71 °F 81 °F 97 °F (1955)
Min Temperature 47 °F 59 °F 45 °F (1971)
Degree Days  
Heating Degree Days 6    
Growing Degree Days 9 (Base 50)    
Moisture  
Dew Point 49 °F    
Average Humidity 71    
Maximum Humidity 90    
Minimum Humidity 48    
Precipitation  
Precipitation 0.00 in - - ()
Sea Level Pressure  
Sea Level Pressure 29.99 in    
Wind  
Wind Speed 6 mph (NW)    
Max Wind Speed 12 mph    
Max Gust Speed 18 mph    
Visibility 10 miles    
Events      
Averages and records for this station are not official NWS values.
T = Trace of Precipitation, MM = Missing Value Source: NWS Daily Summary

Daily Weather History Graph

Daily Weather History Graph

Search for Another Location

Airport or City:

Trip Planner

Search our weather history database for the weather conditions in past years. The results will help you decide how hot, cold, wet, or windy it might be!

Date:

Astronomy

Jul. 28, 2013 Rise Set
Actual Time 5:54 AM CDT 8:41 PM CDT
Civil Twilight 5:20 AM CDT 9:15 PM CDT
Nautical Twilight 4:38 AM CDT 9:57 PM CDT
Astronomical Twilight 3:48 AM CDT 10:47 PM CDT
Moon 11:44 PM CDT (7/28) 12:56 PM CDT (7/28)
Length of Visible Light 15h 54m
Length of Day
14h 46m
Waning Gibbous, 60% of the Moon is Illuminated
Jul 28
Waning Gibbous
Jul 29
Last Quarter
Aug 6
New
Aug 14
First Quarter
Aug 20
Full

Hourly Weather History & Observations

Time (CDT) Temp. Dew Point Humidity Pressure Visibility Wind Dir Wind Speed Gust Speed Precip Events Conditions
12:13 AM 51.8 °F 45.7 °F 80% 29.95 in 10.0 mi NW 5.8 mph - N/A   Clear
12:32 AM 51.4 °F 45.5 °F 80% 29.95 in 10.0 mi NW 8.1 mph - N/A   Clear
12:53 AM 50.7 °F 45.3 °F 82% 29.95 in 10.0 mi NW 5.8 mph - N/A   Clear
1:13 AM 49.6 °F 45.0 °F 84% 29.95 in 10.0 mi NW 3.5 mph - N/A   Clear
1:32 AM 49.1 °F 44.2 °F 83% 29.95 in 10.0 mi NNW 4.6 mph - N/A   Clear
1:53 AM 48.9 °F 45.0 °F 86% 29.95 in 10.0 mi NNW 4.6 mph - N/A   Scattered Clouds
2:13 AM 52.0 °F 45.9 °F 80% 29.95 in 10.0 mi NNW 5.8 mph - N/A   Overcast
2:32 AM 52.9 °F 45.9 °F 77% 29.95 in 10.0 mi NNW 8.1 mph - N/A   Overcast
2:53 AM 53.6 °F 45.5 °F 74% 29.95 in 10.0 mi North 8.1 mph - N/A   Overcast
3:13 AM 53.6 °F 45.5 °F 74% 29.95 in 10.0 mi North 6.9 mph - N/A   Overcast
3:32 AM 53.1 °F 45.5 °F 75% 29.95 in 10.0 mi NNW 8.1 mph - N/A   Overcast
3:53 AM 52.7 °F 45.5 °F 76% 29.95 in 10.0 mi NNW 6.9 mph - N/A   Overcast
4:13 AM 51.8 °F 45.7 °F 80% 29.95 in 10.0 mi NNW 5.8 mph - N/A   Overcast
4:32 AM 50.7 °F 45.3 °F 82% 29.96 in 10.0 mi NW 5.8 mph - N/A   Mostly Cloudy
4:53 AM 52.5 °F 45.9 °F 78% 29.96 in 10.0 mi NNW 5.8 mph - N/A   Overcast
5:13 AM 52.7 °F 46.0 °F 78% 29.97 in 10.0 mi NNW 3.5 mph - N/A   Overcast
5:32 AM 51.6 °F 45.9 °F 81% 29.96 in 10.0 mi Calm Calm - N/A   Mostly Cloudy
5:53 AM 49.6 °F 45.3 °F 85% 29.97 in 10.0 mi North 4.6 mph - N/A   Scattered Clouds
6:13 AM 47.5 °F 43.9 °F 87% 29.97 in 10.0 mi West 3.5 mph - N/A   Scattered Clouds
6:32 AM 49.3 °F 46.0 °F 89% 29.98 in 10.0 mi WNW 4.6 mph - N/A   Mostly Cloudy
6:53 AM 50.5 °F 46.8 °F 87% 29.98 in 10.0 mi NW 3.5 mph - N/A   Overcast
7:13 AM 51.8 °F 47.1 °F 84% 29.98 in 10.0 mi WNW 3.5 mph - N/A   Overcast
7:32 AM 52.7 °F 47.1 °F 81% 29.98 in 10.0 mi NNW 5.8 mph - N/A   Overcast
7:53 AM 53.6 °F 47.1 °F 79% 29.98 in 10.0 mi North 5.8 mph - N/A   Overcast
8:13 AM 53.8 °F 46.2 °F 76% 29.99 in 10.0 mi NNW 10.4 mph - N/A   Overcast
8:32 AM 54.1 °F 46.4 °F 75% 29.99 in 10.0 mi NW 9.2 mph - N/A   Overcast
8:53 AM 54.7 °F 46.6 °F 74% 29.99 in 10.0 mi NW 8.1 mph - N/A   Overcast
9:13 AM 54.9 °F 46.2 °F 73% 29.99 in 10.0 mi NNW 10.4 mph - N/A   Overcast
9:33 AM 55.9 °F 46.6 °F 71% 29.99 in 10.0 mi NW 8.1 mph - N/A   Overcast
9:52 AM 57.7 °F 46.9 °F 67% 29.98 in 10.0 mi North 6.9 mph - N/A   Mostly Cloudy
10:12 AM 57.6 °F 47.1 °F 68% 29.98 in 10.0 mi West 5.8 mph - N/A   Scattered Clouds
10:33 AM 57.9 °F 47.3 °F 68% 29.99 in 10.0 mi WNW 8.1 mph - N/A   Scattered Clouds
10:53 AM 59.2 °F 47.7 °F 66% 29.99 in 10.0 mi NW 9.2 mph - N/A   Scattered Clouds
11:12 AM 60.6 °F 48.7 °F 65% 29.99 in 10.0 mi WNW 8.1 mph - N/A   Scattered Clouds
11:33 AM 60.8 °F 48.9 °F 65% 30.00 in 10.0 mi WNW 8.1 mph - N/A   Scattered Clouds
11:52 AM 61.3 °F 49.6 °F 65% 30.00 in 10.0 mi WNW 6.9 mph - N/A   Scattered Clouds
12:13 PM 62.6 °F 49.1 °F 61% 30.00 in 10.0 mi West 9.2 mph - N/A   Scattered Clouds
12:33 PM 63.5 °F 49.1 °F 59% 30.00 in 10.0 mi West 6.9 mph - N/A   Clear
12:52 PM 64.6 °F 50.7 °F 61% 29.99 in 10.0 mi West 10.4 mph 18.4 mph N/A   Scattered Clouds
1:13 PM 65.3 °F 50.2 °F 58% 30.00 in 10.0 mi West 8.1 mph - N/A   Scattered Clouds
1:33 PM 65.7 °F 49.3 °F 55% 29.99 in 10.0 mi NW 8.1 mph - N/A   Mostly Cloudy
1:52 PM 67.3 °F 50.4 °F 55% 30.00 in 10.0 mi WNW 6.9 mph 18.4 mph N/A   Scattered Clouds
2:13 PM 67.5 °F 50.0 °F 53% 30.00 in 10.0 mi WNW 6.9 mph - N/A   Mostly Cloudy
2:33 PM 66.7 °F 50.5 °F 56% 30.00 in 10.0 mi NW 9.2 mph - N/A   Mostly Cloudy
2:52 PM 66.6 °F 50.4 °F 56% 30.00 in 10.0 mi NW 8.1 mph - N/A   Mostly Cloudy
3:13 PM 68.2 °F 50.5 °F 53% 30.00 in 10.0 mi NNW 10.4 mph - N/A   Mostly Cloudy
3:32 PM 67.8 °F 50.9 °F 55% 29.99 in 10.0 mi NNW 6.9 mph - N/A   Scattered Clouds
3:53 PM 68.2 °F 50.5 °F 53% 29.99 in 10.0 mi North 9.2 mph - N/A   Scattered Clouds
4:13 PM 70.0 °F 50.9 °F 51% 29.99 in 10.0 mi NNW 6.9 mph - N/A   Mostly Cloudy
4:32 PM 71.4 °F 51.3 °F 49% 29.99 in 10.0 mi NNW 6.9 mph - N/A   Overcast
4:53 PM 70.7 °F 50.2 °F 48% 29.99 in 10.0 mi NNW 11.5 mph - N/A   Mostly Cloudy
5:12 PM 70.5 °F 50.2 °F 48% 29.99 in 10.0 mi NW 6.9 mph - N/A   Scattered Clouds
5:32 PM 68.2 °F 49.8 °F 52% 29.99 in 10.0 mi NW 8.1 mph - N/A   Scattered Clouds
5:53 PM 70.0 °F 50.0 °F 49% 29.99 in 10.0 mi NW 8.1 mph - N/A   Scattered Clouds
6:12 PM 70.2 °F 50.9 °F 50% 29.99 in 10.0 mi North 6.9 mph - N/A   Scattered Clouds
6:32 PM 67.8 °F 52.7 °F 58% 29.99 in 10.0 mi Calm Calm - N/A   Scattered Clouds
6:53 PM 69.1 °F 52.9 °F 56% 30.00 in 10.0 mi North 3.5 mph - N/A   Clear
7:12 PM 69.3 °F 52.0 °F 54% 30.00 in 10.0 mi North 3.5 mph - N/A   Clear
7:32 PM 65.8 °F 52.9 °F 63% 30.00 in 10.0 mi Calm Calm - N/A   Clear
7:53 PM 64.9 °F 55.0 °F 70% 30.00 in 10.0 mi Calm Calm - N/A   Clear
8:12 PM 63.3 °F 56.1 °F 77% 30.00 in 10.0 mi Calm Calm - N/A   Clear
8:32 PM 62.1 °F 55.2 °F 78% 30.01 in 10.0 mi Calm Calm - N/A   Clear
8:53 PM 59.2 °F 54.3 °F 84% 30.01 in 10.0 mi Calm Calm - N/A   Clear
9:13 PM 60.1 °F 54.1 °F 81% 30.03 in 10.0 mi East 3.5 mph - N/A   Scattered Clouds
9:32 PM 57.9 °F 53.4 °F 85% 30.03 in 10.0 mi Calm Calm - N/A   Scattered Clouds
9:52 PM 56.8 °F 53.4 °F 88% 30.04 in 10.0 mi Calm Calm - N/A   Scattered Clouds
10:13 PM 58.3 °F 52.9 °F 82% 30.04 in 10.0 mi Calm Calm - N/A   Clear
10:32 PM 56.5 °F 52.3 °F 86% 30.05 in 10.0 mi Calm Calm - N/A   Clear
10:52 PM 55.6 °F 51.4 °F 86% 30.06 in 10.0 mi Calm Calm - N/A   Clear
11:13 PM 54.1 °F 50.4 °F 87% 30.06 in 10.0 mi Calm Calm - N/A   Clear
11:33 PM 53.6 °F 50.7 °F 90% 30.06 in 10.0 mi Calm Calm - N/A   Clear
11:53 PM 53.4 °F 50.5 °F 90% 30.07 in 10.0 mi Calm Calm - N/A   Clear